EW0478 Weather Reports


time (UTC)temp
C
wind
direction
speed
KPH
gust
KPH
rain 1hr
cm
rain 24hr
cm
rain mn
cm
humidity
%
barometer
mb
20260503192703 15 350 8.0 22.5 0.00 0.00 0.00 35 1008.0
20260503192016 15 320 3.2 20.9 0.00 0.00 0.00 34 1008.3
20260503191511 15 291 3.2 12.9 0.00 0.00 0.00 33 1008.3
20260503190903 15 318 4.8 17.7 0.00 0.00 0.00 36 1008.1
20260503190004 15 312 6.4 20.9 0.00 0.00 0.00 32 1008.6
20260503185403 15 283 8.0 22.5 0.00 0.00 0.00 35 1008.3
20260503184505 15 194 3.2 12.9 0.00 0.00 0.00 35 1008.5
20260503184503 15 309 4.8 11.3 0.00 0.00 0.00 35 1008.4
20260503183603 15 305 4.8 19.3 0.00 0.00 0.00 34 1008.7
20260503183008 14 289 4.8 19.3 0.00 0.00 0.00 34 1008.8
20260503182703 14 311 4.8 12.9 0.00 0.00 0.00 37 1008.8
20260503181803 13 313 6.4 17.7 0.00 0.00 0.00 38 1008.8
20260503181508 13 312 4.8 17.7 0.00 0.00 0.00 40 1008.9
20260503180903 13 333 6.4 25.7 0.00 0.00 0.00 40 1008.9
20260503180011 13 360 6.4 24.1 0.00 0.00 0.00 39 1008.9
20260503180003 13 335 6.4 27.4 0.00 0.00 0.00 39 1008.8
20260503175403 13 296 3.2 11.3 0.00 0.00 0.00 40 1008.9
20260503174717 13 330 4.8 17.7 0.00 0.00 0.00 41 1008.8
20260503174503 12 306 3.2 16.1 0.00 0.00 0.00 41 1009.0
20260503173817 13 339 6.4 20.9 0.00 0.00 0.00 42 1009.0
20260503173009 13 267 6.4 19.3 0.00 0.00 0.00 39 1009.1
20260503172703 13 319 3.2 11.3 0.00 0.00 0.00 42 1009.2
20260503171803 12 297 3.2 9.7 0.00 0.00 0.00 46 1009.2
20260503171508 12 310 1.6 9.7 0.00 0.00 0.00 43 1009.4
20260503171117 12 326 3.2 12.9 0.00 0.00 0.00 44 1009.3
20260503170218 12 313 4.8 17.7 0.00 0.00 0.00 41 1009.3
20260503150903 10 341 4.8 17.7 0.00 0.00 0.00 50 1009.9
20260503131117 8 349 8.0 19.3 0.00 0.00 0.00 57 1009.9
20260503081522 7 341 0.0 4.8 0.00 0.00 0.00 58 1007.5
20260503081118 7 7 3.2 11.3 0.00 0.00 0.00 58 1007.4
20260503072703 8 357 3.2 11.3 0.00 0.00 0.00 57 1007.2
20260503071803 8 345 1.6 8.0 0.00 0.00 0.00 58 1007.3
20260503071511 7 352 0.0 6.4 0.00 0.00 0.00 58 1007.4
20260503070903 8 346 1.6 8.0 0.00 0.00 0.00 57 1007.3
20260503054717 8 350 1.6 4.8 0.00 0.00 0.00 55 1007.6
20260503054522 8 10 0.0 4.8 0.00 0.00 0.00 56 1007.7
20260503053603 8 351 1.6 6.4 0.00 0.00 0.00 55 1007.6
20260503053010 8 6 0.0 8.0 0.00 0.00 0.00 55 1007.7
20260503052703 9 344 1.6 9.7 0.00 0.00 0.00 55 1007.7
20260503051803 9 346 1.6 8.0 0.00 0.00 0.00 55 1007.6
20260503051506 8 350 0.0 4.8 0.00 0.00 0.00 55 1007.7
20260503050903 9 343 1.6 6.4 0.00 0.00 0.00 54 1007.6
20260503050008 8 7 0.0 9.7 0.00 0.00 0.00 54 1007.9
20260503050003 9 351 1.6 6.4 0.00 0.00 0.00 54 1007.7
20260503045617 9 345 1.6 8.0 0.00 0.00 0.00 54 1007.8
20260503044510 9 350 1.6 8.0 0.00 0.00 0.00 53 1008.0
20260503044503 9 341 1.6 9.7 0.00 0.00 0.00 53 1007.8
20260503043603 9 344 1.6 9.7 0.00 0.00 0.00 54 1007.9
20260503043009 9 332 1.6 9.7 0.00 0.00 0.00 54 1008.0
20260503042917 9 345 1.6 9.7 0.00 0.00 0.00 54 1007.8
20260503041803 9 343 1.6 6.4 0.00 0.00 0.00 54 1008.0
20260503041510 9 9 0.0 8.0 0.00 0.00 0.00 54 1008.1
20260503040903 9 351 1.6 6.4 0.00 0.00 0.00 53 1008.1
20260503040017 9 4 1.6 6.4 0.00 0.00 0.00 53 1008.2
20260503040005 9 340 1.6 4.8 0.00 0.00 0.00 53 1008.1
20260503035403 9 338 1.6 8.0 0.00 0.00 0.00 53 1008.1
20260503034615 9 316 0.0 4.8 0.00 0.00 0.00 54 1008.1
20260503034503 10 339 1.6 8.0 0.00 0.00 0.00 53 1008.0
20260503033818 10 341 1.6 8.0 0.00 0.00 0.00 52 1008.0
20260503033005 9 315 0.0 9.7 0.00 0.00 0.00 53 1008.1
20260503032703 10 342 1.6 9.7 0.00 0.00 0.00 52 1007.9
20260503031804 10 345 1.6 4.8 0.00 0.00 0.00 52 1007.9
20260503031510 10 360 0.0 6.4 0.00 0.00 0.00 53 1008.1
20260503030903 10 341 1.6 6.4 0.00 0.00 0.00 52 1008.0
20260503030012 10 332 0.0 4.8 0.00 0.00 0.00 52 1008.2
20260503030003 10 343 1.6 4.8 0.00 0.00 0.00 52 1008.0
20260503025403 10 346 1.6 4.8 0.00 0.00 0.00 51 1008.0
20260503024505 10 331 0.0 6.4 0.00 0.00 0.00 51 1008.2
20260503024503 10 350 1.6 6.4 0.00 0.00 0.00 51 1008.1
20260503023603 10 344 1.6 6.4 0.00 0.00 0.00 51 1008.1
20260503023009 10 336 0.0 6.4 0.00 0.00 0.00 52 1008.2
20260503022703 10 337 1.6 6.4 0.00 0.00 0.00 51 1008.1
20260503021803 11 339 1.6 6.4 0.00 0.00 0.00 50 1008.1
20260503021515 10 310 0.0 6.4 0.00 0.00 0.00 50 1008.2
20260503021117 11 349 1.6 9.7 0.00 0.00 0.00 51 1008.0
20260503020217 11 345 0.0 9.7 0.00 0.00 0.00 52 1008.0
20260503020007 10 21 0.0 4.8 0.00 0.00 0.00 52 1008.1
20260503015403 11 347 0.0 4.8 0.00 0.00 0.00 52 1008.0
20260503014510 10 333 0.0 6.4 0.00 0.00 0.00 51 1008.2
20260503014503 11 341 1.6 6.4 0.00 0.00 0.00 51 1008.0
20260503013603 11 331 0.0 3.2 0.00 0.00 0.00 53 1008.0
20260503013010 10 326 0.0 1.6 0.00 0.00 0.00 53 1008.1
20260503012703 11 6 0.0 1.6 0.00 0.00 0.00 51 1008.1
20260503011803 11 349 0.0 1.6 0.00 0.00 0.00 51 1008.0
20260503011519 11 331 0.0 1.6 0.00 0.00 0.00 51 1008.1
20260503010903 11 339 0.0 1.6 0.00 0.00 0.00 50 1007.9
20260503010009 11 333 0.0 3.2 0.00 0.00 0.00 50 1008.0
20260503010003 11 331 0.0 3.2 0.00 0.00 0.00 50 1007.8
20260503005403 11 284 0.0 1.6 0.00 0.00 0.00 51 1007.7
20260503004515 11 284 0.0 1.6 0.00 0.00 0.00 49 1007.7
20260503004503 11 329 0.0 3.2 0.00 0.00 0.00 49 1007.6
20260503003603 11 348 0.0 3.2 0.00 0.00 0.00 50 1007.5
20260503003011 11 320 0.0 3.2 0.00 0.00 0.00 49 1007.6
20260503002703 12 350 0.0 3.2 0.00 0.00 0.00 49 1007.5
20260503001803 12 351 0.0 3.2 0.00 0.00 0.00 49 1007.3
20260503001504 12 341 0.0 1.6 0.00 0.00 0.00 50 1007.4
20260503001117 12 348 0.0 1.6 0.00 0.00 0.00 49 1007.2
20260503000008 12 331 0.0 1.6 0.00 0.00 0.00 47 1007.4
20260503000003 12 323 0.0 1.6 0.00 0.00 0.00 47 1007.3
20260502235403 12 320 0.0 1.6 0.00 0.00 0.00 46 1007.2
20260502234522 12 303 0.0 3.2 0.00 0.00 0.00 45 1007.2
20260502234503 12 302 0.0 3.2 0.00 0.00 0.00 45 1007.1
20260502233603 13 11 0.0 1.6 0.00 0.00 0.00 45 1007.1
20260502233006 13 10 0.0 8.0 0.00 0.00 0.00 43 1007.2
20260502232917 13 344 1.6 8.0 0.00 0.00 0.00 44 1007.1
20260502231803 13 344 1.6 6.4 0.00 0.00 0.00 43 1007.1
20260502231509 13 341 1.6 4.8 0.00 0.00 0.00 44 1007.3
20260502230903 13 328 0.0 4.8 0.00 0.00 0.00 43 1007.1
20260502230103 13 289 0.0 3.2 0.00 0.00 0.00 44 1007.1
20260502230003 13 349 0.0 4.8 0.00 0.00 0.00 44 1007.1
20260502225403 13 1 0.0 6.4 0.00 0.00 0.00 43 1007.0
20260502224718 14 355 0.0 4.8 0.00 0.00 0.00 42 1006.9
20260502224506 13 2 0.0 3.2 0.00 0.00 0.00 41 1007.1
20260502223603 14 338 0.0 3.2 0.00 0.00 0.00 41 1006.9
20260502223010 14 338 0.0 4.8 0.00 0.00 0.00 41 1006.9
20260502222703 15 341 0.0 4.8 0.00 0.00 0.00 40 1006.8
20260502221803 15 305 0.0 6.4 0.00 0.00 0.00 39 1006.8
20260502221603 15 257 0.0 6.4 0.00 0.00 0.00 39 1006.8
20260502220903 16 290 0.0 6.4 0.00 0.00 0.00 37 1006.8
20260502220217 16 333 1.6 11.3 0.00 0.00 0.00 38 1006.8
20260502220011 16 292 0.0 9.7 0.00 0.00 0.00 37 1006.9
20260502215403 17 331 0.0 4.8 0.00 0.00 0.00 39 1006.8
20260502214531 16 343 0.0 9.7 0.00 0.00 0.00 38 1007.0
20260502214503 16 318 1.6 11.3 0.00 0.00 0.00 38 1006.9
20260502213603 16 340 1.6 6.4 0.00 0.00 0.00 39 1006.8
20260502213006 15 297 0.0 6.4 0.00 0.00 0.00 40 1006.8
20260502212703 15 6 1.6 8.0 0.00 0.00 0.00 40 1006.7
20260502211803 15 333 3.2 8.0 0.00 0.00 0.00 41 1006.6
20260502211515 15 341 1.6 8.0 0.00 0.00 0.00 40 1006.7
20260502210903 15 344 3.2 12.9 0.00 0.00 0.00 39 1006.6
20260502210022 16 336 3.2 11.3 0.00 0.00 0.00 39 1006.7
20260502210004 16 346 3.2 12.9 0.00 0.00 0.00 39 1006.6
20260502205618 16 340 1.6 9.7 0.00 0.00 0.00 37 1006.4
20260502204510 16 13 0.0 8.0 0.00 0.00 0.00 40 1006.6
20260502204503 16 321 1.6 6.4 0.00 0.00 0.00 40 1006.5
20260502203603 16 324 3.2 6.4 0.00 0.00 0.00 39 1006.6
20260502203012 15 9 1.6 9.7 0.00 0.00 0.00 41 1006.7
20260502202703 16 339 3.2 11.3 0.00 0.00 0.00 40 1006.7
20260502201803 15 326 1.6 9.7 0.00 0.00 0.00 42 1006.9
20260502201509 15 310 0.0 8.0 0.00 0.00 0.00 43 1006.9
20260502201117 15 355 3.2 16.1 0.00 0.00 0.00 40 1006.9
20260502200012 16 295 3.2 9.7 0.00 0.00 0.00 39 1007.0
20260502200003 16 344 1.6 11.3 0.00 0.00 0.00 39 1006.9
20260502195403 16 325 3.2 8.0 0.00 0.00 0.00 43 1006.9
20260502194604 16 233 0.0 8.0 0.00 0.00 0.00 39 1007.2
20260502194503 16 274 1.6 8.0 0.00 0.00 0.00 39 1007.1
20260502193603 16 344 3.2 9.7 0.00 0.00 0.00 40 1007.2
20260502193104 16 312 3.2 12.9 0.00 0.00 0.00 41 1007.4